This is the latest recevied weather packets stored in our database for station/object WW5JC. If no packets are shown the sender has not sent any weather packets the latest 10 day(s).
| Time | Temp. | Humidity | Pressure | Rain* | Wind** | Luminosity | Snow |
|---|---|---|---|---|---|---|---|
| 1777670891 | 18.33° C | 67% | 1016.8 hPa | 0 mm | - | 153 W/m² | - |
| 1777670588 | 18.33° C | 69% | 1016.7 hPa | 0 mm | - | 138 W/m² | - |
| 1777670285 | 18.33° C | 68% | 1016.8 hPa | 0 mm | - | 151 W/m² | - |
| 1777669982 | 18.89° C | 69% | 1017 hPa | 0 mm | - | 187 W/m² | - |
| 1777669679 | 18.33° C | 69% | 1017.1 hPa | 0 mm | - | 183 W/m² | - |
| 1777669375 | 18.33° C | 69% | 1017.3 hPa | 0 mm | - | 177 W/m² | - |
| 1777669072 | 18.33° C | 68% | 1017.2 hPa | 0 mm | - | 181 W/m² | - |
| 1777668769 | 18.33° C | 67% | 1017 hPa | 0 mm | - | 195 W/m² | - |
| 1777668466 | 18.89° C | 66% | 1016.8 hPa | 0 mm | - | 182 W/m² | - |
| 1777668163 | 18.89° C | 65% | 1016.9 hPa | 0 mm | - | 213 W/m² | - |
| 1777667859 | 18.89° C | 64% | 1017.1 hPa | 0 mm | - | 229 W/m² | - |
| 1777667556 | 18.89° C | 71% | 1017.2 hPa | 0 mm | - | 277 W/m² | - |
| 1777667253 | 18.33° C | 70% | 1017.2 hPa | 0 mm | - | 257 W/m² | - |
| 1777666950 | 18.89° C | 69% | 1016.9 hPa | 0 mm | - | 252 W/m² | - |
| 1777666647 | 18.33° C | 67% | 1016.6 hPa | 0 mm | - | 284 W/m² | - |
| 1777666344 | 18.33° C | 67% | 1016.8 hPa | 0 mm | - | 326 W/m² | - |
| 1777666040 | 18.33° C | 70% | 1016.8 hPa | 0 mm | - | 255 W/m² | - |
| 1777665738 | 18.33° C | 66% | 1016.6 hPa | 0 mm | - | 262 W/m² | - |
| 1777665435 | 18.33° C | 71% | 1016.6 hPa | 0 mm | - | 308 W/m² | - |
| 1777665131 | 18.33° C | 68% | 1016.9 hPa | 0 mm | - | 266 W/m² | - |
| 1777664827 | 17.78° C | 70% | 1016.8 hPa | 0 mm | - | 283 W/m² | - |
| 1777664522 | 17.78° C | 69% | 1017 hPa | 0 mm | - | 317 W/m² | - |
| 1777664220 | 18.33° C | 66% | 1017 hPa | 0 mm | - | 327 W/m² | - |
| 1777663918 | 18.33° C | 69% | 1017.4 hPa | 0 mm | - | 506 W/m² | - |
| 1777663615 | 17.78° C | 67% | 1017.4 hPa | 0 mm | - | 390 W/m² | - |
* Rain latest hour (hover to see other rain measurements)
** Current wind speed in m/s (hover to see current wind gust speed)